STARLINK-5675, 55340

Orbit data source: Space-Track

STARLINK-5675, 55340 is a payload satellite owned by SpaceX/Seattle (US) in LEO that was launched on Thu, 26 Jan 2023 UTC via an FALCON 9 launch vehicle from the Air Force Eastern Test Range (AFETR). Payload-class satellites include a variety of spacecraft equipped with specific instruments for various scientific and technological missions. These include communications satellites like Starlink; space stations such as the ISS; scientific satellites like the Hubble; Earth observation satellites from companies like Planet Labs, Umbra, and HawkEye 360; GPS; miniature CubeSats for education and research; and military/defense satellites.

Loading next visibility...
Identifier
55340, 2023-013K
Orbit
LEO
Country
Flag of USUS
Related business
Manufacturer
SpaceX/Seattle
Mission
Operational Commercial Communications
Bus & Motor
STARLINK, Unknown motor
Mass
305 kg wet, ~290 kg dry
Launch date (UTC)
2023-01-26 (3 years ago)
Launch vehicle
FALCON 9
Launch site
Air Force Eastern Test Range (AFETR)
Object type
Payload
Rocket body
Debris
Shape & HBR
Box + 1 Pan, 10.1 m
Radar Cross Section
13.562 m², Large (>1 m²)

Expand to show TLE details & history
Last TLE update: 2 days ago

TLE from 2 days ago
0 STARLINK-5675
1 55340U 23013K   26171.13355565  .00000797  00000-0  38488-4 0  9994
2 55340  43.0022  84.6268 0000972 265.7091  94.3650 15.27581471187343
Epoch: 2026-06-20T03:12Z
TLE epoch observation values (Epoch: 2026-06-20T03:12:19.208Z)
Latitude
0.00002°
Longitude
128.19424°
Altitude
482.871 km
Speed
7.626 km/s
True Right ascension
05h 38m 30s
True Declination
0° 00' 00"
Sunlit
Object was in daylight at epoch
Visualization orbit readout
Latitude
Unknown
Longitude
Unknown
Altitude
Unknown
Speed
Unknown
Apparent Right ascension
Unknown
Apparent Declination
Unknown
Sunlit
N/A
Visualization observer readout
Local Sidereal Time
21:40:22
Azimuth
Unknown
Elevation
Unknown
Doppler factor
Unknown
Orbital elements
Apogee altitude
485.657 km
Perigee altitude
484.322 km
Semi-major axis
6,863.126 km
Eccentricity
0.0001
Inclination
43.0022°
RAAN
84.6268°
Arg. of periapsis
265.7091°
True anomaly
94.37611°
Mean anomaly
94.365°
Eccentric anomaly
94.37055°
Mean motion
3.81733 °/min
Orbital period
94.31 mins
BSTAR
0.000038488
Loading maneuver chart data...
Computing Atmospheric mass density...
Loading historical data...
Loading historical data...
Loading historical data...
Loading historical data...
Loading historical data...
Loading historical data...
Loading historical data...

Documentation

Showing up to 5 results
|